Location: ????????
(60.4333°N, 46.4710°E)
Time: 03:37:41
(UTC+00:00)

Cosmos 1607 - Pass Details

Date: 25 November 2020
Orbit: 908 x 995 km, 65.0° (Epoch: 19 January)

Event Time Altitude Azimuth Distance (km) Brightness Sun altitude
Rises 16:15:12 0° 269° (W) 3,671 8.2 -29.6°
Reaches altitude 10° 16:17:48 10° 273° (W) 2,735 7.2 -29.9°
Maximum altitude 16:24:09 60° 353° (N) 1,133 4.3 -30.7°
Enters shadow 16:24:23 59° 3° (N) 1,137 4.2 -30.7°
